period_start,C,m1,H,J0,J1,J2,J3,J4,J5,JA,JB,JC,JD,JJ,JK,JN,#
2016-08-11 00:01:33,-0.00,0.14,0.00,23.83,28.50,31.27,14.48,46.99,1016.13,2034.07,3398.04,3071.00,3475.73,600.46,594.42,27.31,0000 0000 0000 0000 000000
2016-08-11 00:06:34,0.00,0.14,0.00,23.84,28.50,31.29,14.44,47.13,1016.13,2034.08,3398.06,3071.00,3475.68,599.88,593.89,27.36,0000 0000 0000 0000 000000
2016-08-11 00:11:35,-0.00,0.14,0.00,23.85,28.50,31.29,14.42,46.91,1016.09,2034.06,3398.01,3071.00,3475.53,599.58,593.72,27.41,0000 0000 0000 0000 000000
2016-08-11 00:16:36,0.00,0.14,0.00,23.86,28.50,31.29,14.43,46.78,1016.03,2034.07,3398.01,3071.00,3475.37,599.94,594.01,27.46,0000 0000 0000 0000 000000
2016-08-11 00:21:38,-0.00,0.14,0.00,23.88,28.50,31.28,14.51,47.05,1016.03,2034.04,3398.02,3071.00,3475.26,599.80,593.66,27.51,0000 0000 0000 0000 000000
2016-08-11 00:26:39,0.00,0.14,0.00,23.69,28.50,31.33,14.46,47.01,1016.07,2034.05,3398.00,3071.00,3475.18,599.90,594.27,27.56,0000 0000 0000 0000 000000
2016-08-11 00:31:40,-0.00,0.14,0.00,23.70,28.50,31.33,14.50,46.99,1016.04,2034.04,3398.00,3071.00,3475.10,599.84,594.10,27.62,0000 0000 0000 0000 000000
2016-08-11 00:36:42,0.00,0.14,0.00,23.84,28.50,31.30,14.51,46.94,1016.00,2034.03,3398.00,3071.00,3475.07,599.96,594.01,27.67,0000 0000 0000 0000 000000
2016-08-11 00:41:43,-0.00,0.14,0.00,23.88,28.52,31.28,14.47,46.89,1016.00,2034.02,3398.00,3071.00,3475.05,599.72,593.49,27.72,0000 0000 0000 0000 000000
2016-08-11 00:46:44,0.00,0.14,0.00,23.87,28.52,31.30,14.48,47.01,1016.05,2034.00,3397.99,3070.99,3475.00,600.12,594.17,27.77,0000 0000 0000 0000 000000
2016-08-11 00:51:45,0.00,0.14,0.00,23.90,28.52,31.31,14.46,46.90,1016.04,2034.01,3397.98,3070.98,3475.01,599.51,593.45,27.82,0000 0000 0000 0000 000000
2016-08-11 00:56:47,0.00,0.14,0.00,23.90,28.52,31.32,14.53,46.89,1016.02,2034.00,3397.95,3070.97,3475.00,600.54,594.38,27.87,0000 0000 0000 0000 000000
2016-08-11 01:01:48,0.00,0.14,0.00,23.91,28.53,31.31,14.54,47.09,1015.92,2034.00,3397.94,3070.96,3475.00,600.24,593.96,27.92,0000 0000 0000 0000 000000
2016-08-11 01:06:49,0.00,0.14,0.00,23.89,28.54,31.33,14.50,47.08,1015.96,2034.01,3397.91,3070.98,3475.00,600.29,594.16,27.97,0000 0000 0000 0000 000000
2016-08-11 01:11:51,0.00,0.14,0.00,23.90,28.55,31.33,14.42,46.87,1015.99,2034.03,3397.74,3070.98,3475.00,599.65,593.50,28.02,0000 0000 0000 0000 000000
2016-08-11 01:16:52,-0.00,0.14,0.00,23.92,28.55,31.32,14.51,47.06,1015.91,2034.02,3397.74,3070.97,3475.00,600.47,594.29,28.07,0000 0000 0000 0000 000000
2016-08-11 01:21:53,0.01,0.14,0.00,23.92,28.55,31.33,14.45,47.01,1015.86,2034.01,3397.49,3070.88,3474.99,599.96,593.71,28.12,0000 0000 0000 0000 000000
2016-08-11 01:26:54,-0.00,0.14,0.00,23.93,28.55,31.32,14.46,47.15,1016.02,2034.01,3397.38,3070.91,3474.98,599.73,593.70,28.17,0000 0000 0000 0000 000000
2016-08-11 01:31:56,0.01,0.14,0.00,23.91,28.55,31.32,14.57,47.19,1016.06,2034.02,3397.07,3070.68,3474.96,600.32,594.26,28.22,0000 0000 0000 0000 000000
2016-08-11 01:36:57,0.01,0.14,0.00,23.91,28.57,31.33,14.44,46.73,1015.94,2034.00,3397.01,3070.41,3474.94,599.74,593.63,28.27,0000 0000 0000 0000 000000
2016-08-11 01:41:58,0.00,0.14,0.00,23.94,28.57,31.33,14.41,46.81,1016.01,2034.00,3397.01,3070.25,3474.83,599.85,593.62,28.32,0000 0000 0000 0000 000000
2016-08-11 01:47:00,0.01,0.14,0.00,23.96,28.57,31.32,14.39,46.92,1015.97,2034.00,3397.00,3070.08,3474.47,599.91,593.66,28.37,0000 0000 0000 0000 000000
2016-08-11 01:52:01,0.00,0.14,0.00,23.94,28.57,31.32,14.49,47.09,1015.73,2034.00,3396.98,3070.03,3474.28,600.02,593.60,28.42,0000 0000 0000 0000 000000
2016-08-11 01:57:02,0.00,0.14,0.00,23.94,28.57,31.32,14.41,47.00,1015.67,2034.00,3396.95,3070.01,3474.10,599.73,593.41,28.47,0000 0000 0000 0000 000000
2016-08-11 02:02:03,-0.00,0.14,0.00,23.95,28.57,31.32,14.42,47.07,1015.69,2034.00,3396.98,3070.05,3474.14,600.27,593.85,28.52,0000 0000 0000 0000 000000
2016-08-11 02:07:05,0.00,0.14,0.00,24.00,28.57,31.30,14.45,47.09,1015.70,2034.00,3396.96,3070.07,3474.09,600.05,593.54,28.57,0000 0000 0000 0000 000000
2016-08-11 02:12:06,0.00,0.14,0.00,24.01,28.58,31.32,14.42,46.97,1015.67,2034.00,3396.96,3070.02,3474.06,599.84,593.42,28.62,0000 0000 0000 0000 000000
2016-08-11 02:17:07,0.00,0.14,0.00,24.02,28.59,31.31,14.53,47.17,1015.66,2034.01,3396.94,3070.02,3474.02,600.16,593.49,28.67,0000 0000 0000 0000 000000
2016-08-11 02:22:08,0.00,0.14,0.00,24.02,28.60,31.32,14.41,47.07,1015.66,2034.00,3396.87,3070.01,3474.00,599.92,593.36,28.72,0000 0000 0000 0000 000000
2016-08-11 02:27:10,0.00,0.14,0.00,24.02,28.60,31.33,14.45,47.16,1015.66,2034.00,3396.47,3070.00,3474.00,599.67,593.24,28.77,0000 0000 0000 0000 000000
2016-08-11 02:32:11,-0.00,0.14,0.00,24.04,28.60,31.32,14.42,47.02,1015.65,2034.00,3396.55,3070.01,3474.00,599.91,593.27,28.82,0000 0000 0000 0000 000000
2016-08-11 02:37:12,0.00,0.14,0.00,24.04,28.60,31.31,14.47,47.11,1015.65,2034.00,3396.40,3070.00,3474.00,599.75,593.29,28.87,0000 0000 0000 0000 000000
2016-08-11 02:42:14,0.00,0.14,0.00,24.03,28.60,31.33,14.44,47.17,1015.66,2034.00,3396.47,3070.00,3474.00,599.89,593.22,28.92,0000 0000 0000 0000 000000
2016-08-11 02:47:15,0.00,0.14,0.00,24.05,28.60,31.31,14.40,47.23,1015.65,2034.00,3396.18,3070.00,3474.00,599.95,593.35,28.97,0000 0000 0000 0000 000000
2016-08-11 02:52:17,0.00,0.14,0.00,24.06,28.60,31.32,14.37,46.88,1015.64,2034.00,3396.09,3070.00,3473.98,599.66,593.22,29.02,0000 0000 0000 0000 000000
2016-08-11 02:57:18,0.00,0.14,0.00,24.07,28.60,31.31,14.46,47.00,1015.65,2034.00,3396.02,3070.00,3473.98,600.21,593.53,29.07,0000 0000 0000 0000 000000
2016-08-11 03:02:19,0.00,0.14,0.00,24.13,28.60,31.30,14.43,47.02,1015.65,2034.00,3396.00,3069.91,3473.97,599.89,593.09,29.12,0000 0000 0000 0000 000000
2016-08-11 03:07:20,0.00,0.14,0.00,24.14,28.61,31.30,14.31,46.75,1015.65,2034.00,3395.99,3069.94,3473.96,599.54,592.74,29.17,0000 0000 0000 0000 000000
2016-08-11 03:12:21,0.00,0.14,0.00,24.13,28.61,31.30,14.55,47.14,1015.65,2034.00,3395.98,3069.93,3473.95,600.52,593.66,29.22,0000 0000 0000 0000 000000
2016-08-11 03:17:23,0.01,0.14,0.00,24.13,28.62,31.30,14.45,47.16,1015.65,2034.00,3395.91,3069.77,3473.80,599.86,593.06,29.27,0000 0000 0000 0000 000000
2016-08-11 03:22:24,0.02,0.14,0.00,24.15,28.62,31.30,14.42,47.15,1015.64,2034.00,3395.73,3069.50,3473.39,599.74,592.95,29.32,0000 0000 0000 0000 000000
2016-08-11 03:27:25,0.01,0.14,0.00,24.19,28.62,31.29,14.40,46.99,1015.64,2034.00,3395.55,3069.20,3473.11,599.86,592.81,29.37,0000 0000 0000 0000 000000
2016-08-11 03:32:26,0.00,0.14,0.00,24.18,28.62,31.30,14.39,47.06,1015.64,2034.00,3395.39,3069.19,3473.11,600.24,593.20,29.42,0000 0000 0000 0000 000000
2016-08-11 03:37:28,0.00,0.14,0.00,24.19,28.62,31.30,14.53,47.29,1015.63,2034.00,3395.14,3069.08,3473.06,600.60,593.74,29.47,0000 0000 0000 0000 000000
2016-08-11 03:42:29,0.00,0.14,0.00,24.21,28.63,31.31,14.47,47.14,1015.64,2034.00,3395.06,3069.11,3473.03,600.23,593.19,29.52,0000 0000 0000 0000 000000
2016-08-11 03:47:30,0.00,0.15,0.00,24.25,28.64,31.29,14.41,47.17,1015.57,2034.00,3395.04,3069.06,3473.03,599.78,592.66,29.57,0000 0000 0000 0000 000000
2016-08-11 03:52:32,0.00,0.15,0.00,24.27,28.65,31.30,14.53,47.16,1015.51,2034.00,3395.00,3069.01,3473.00,600.49,593.21,29.62,0000 0000 0000 0000 000000
2016-08-11 03:57:33,0.00,0.15,0.00,24.30,28.65,31.30,14.35,46.95,1015.46,2033.99,3395.00,3069.00,3473.00,599.72,592.45,29.67,0000 0000 0000 0000 000000
2016-08-11 04:02:34,0.00,0.15,0.00,24.31,28.65,31.30,14.45,47.08,1015.53,2033.99,3394.99,3069.00,3473.00,600.30,593.08,29.72,0000 0000 0000 0000 000000
2016-08-11 04:07:36,0.00,0.15,0.00,24.30,28.66,31.30,14.39,46.88,1015.48,2033.97,3394.98,3069.00,3472.96,600.13,592.82,29.77,0000 0000 0000 0000 000000
2016-08-11 04:12:37,-0.00,0.15,0.00,24.33,28.67,31.30,14.32,46.93,1015.44,2033.97,3394.95,3068.99,3472.94,599.78,592.50,29.82,0000 0000 0000 0000 000000
2016-08-11 04:17:38,0.01,0.15,0.00,24.34,28.67,31.29,14.42,47.27,1015.36,2033.94,3394.67,3068.99,3472.70,600.14,592.73,29.87,0000 0000 0000 0000 000000
2016-08-11 04:22:40,0.01,0.15,0.00,24.33,28.67,31.31,14.42,47.23,1015.31,2033.96,3394.35,3068.97,3472.61,599.93,592.55,29.92,0000 0000 0000 0000 000000
2016-08-11 04:27:41,0.00,0.15,0.00,24.36,28.67,31.31,14.32,47.33,1015.20,2033.93,3394.28,3068.94,3472.29,599.62,592.10,29.97,0000 0000 0000 0000 000000
2016-08-11 04:32:43,-0.01,0.15,0.00,24.36,28.67,31.31,14.43,47.15,1015.24,2033.89,3394.40,3068.96,3472.30,599.70,592.26,30.02,0000 0000 0000 0000 000000
2016-08-11 04:37:44,-0.01,0.15,0.00,24.37,28.68,31.31,14.42,47.15,1015.18,2033.75,3394.20,3068.90,3472.10,599.92,592.35,30.07,0000 0000 0000 0000 000000
2016-08-11 04:42:45,-0.01,0.14,0.00,24.38,28.70,31.31,14.42,47.39,1015.17,2033.52,3394.08,3068.73,3472.02,600.08,592.57,30.12,0000 0000 0000 0000 000000
2016-08-11 04:47:46,0.00,0.14,0.00,24.39,28.70,31.32,14.41,47.16,1015.16,2033.41,3394.01,3068.54,3472.01,599.76,592.15,30.17,0000 0000 0000 0000 000000
2016-08-11 04:52:48,0.00,0.15,0.00,24.41,28.70,31.32,14.28,47.17,1015.16,2033.48,3394.00,3068.42,3472.00,599.93,592.31,30.23,0000 0000 0000 0000 000000
2016-08-11 04:57:49,0.01,0.14,0.00,24.42,28.70,31.31,14.42,47.27,1015.15,2033.31,3393.99,3068.16,3472.00,599.95,592.33,30.28,0000 0000 0000 0000 000000
2016-08-11 05:02:50,-0.01,0.14,0.00,24.43,28.70,31.30,14.45,47.31,1015.15,2033.15,3393.99,3068.07,3472.00,600.30,592.80,30.33,0000 0000 0000 0000 000000
2016-08-11 05:07:52,-0.00,0.14,0.00,24.43,28.70,31.30,14.36,47.18,1015.15,2033.14,3393.99,3068.05,3471.99,599.85,592.11,30.38,0000 0000 0000 0000 000000
2016-08-11 05:12:53,-0.00,0.14,0.00,24.43,28.71,31.32,14.44,47.13,1015.15,2033.16,3393.99,3068.08,3471.99,600.19,592.47,30.43,0000 0000 0000 0000 000000
2016-08-11 05:17:54,0.00,0.14,0.00,24.44,28.72,31.33,14.44,47.14,1015.14,2033.15,3393.91,3068.06,3471.98,600.19,592.43,30.48,0000 0000 0000 0000 000000
2016-08-11 05:22:55,0.01,0.14,0.00,24.45,28.72,31.33,14.38,46.92,1015.11,2033.28,3393.88,3068.02,3471.98,599.99,592.24,30.53,0000 0000 0000 0000 000000
2016-08-11 05:27:57,0.01,0.14,0.00,24.46,28.72,31.32,14.34,47.17,1015.05,2033.24,3393.50,3068.03,3471.98,599.71,591.94,30.58,0000 0000 0000 0000 000000
2016-08-11 05:32:58,-0.01,0.14,0.00,24.47,28.72,31.32,14.43,47.12,1015.01,2033.21,3393.34,3068.00,3471.95,600.15,592.41,30.63,0000 0000 0000 0000 000000
2016-08-11 05:37:59,0.01,0.15,0.00,24.48,28.72,31.34,14.36,47.23,1014.99,2033.26,3393.24,3068.00,3471.92,599.93,592.13,30.68,0000 0000 0000 0000 000000
2016-08-11 05:43:01,-0.01,0.15,0.00,24.50,28.72,31.32,14.35,46.94,1015.00,2033.20,3393.11,3068.00,3471.79,599.58,591.66,30.73,0000 0000 0000 0000 000000
2016-08-11 05:48:02,0.00,0.15,0.00,24.49,28.73,31.33,14.28,47.00,1014.75,2033.13,3393.04,3068.00,3471.59,599.88,591.82,30.78,0000 0000 0000 0000 000000
2016-08-11 05:53:03,0.00,0.14,0.00,24.50,28.75,31.34,14.39,46.98,1014.74,2033.05,3393.01,3068.00,3471.26,600.07,592.08,30.83,0000 0000 0000 0000 000000
2016-08-11 05:58:04,0.00,0.15,0.00,24.51,28.75,31.34,14.40,46.90,1014.68,2033.07,3393.00,3068.00,3471.10,599.77,591.59,30.88,0000 0000 0000 0000 000000
2016-08-11 06:03:05,0.00,0.15,0.00,24.52,28.75,31.34,14.36,46.98,1014.67,2033.08,3393.00,3067.99,3471.05,600.00,591.92,30.93,0000 0000 0000 0000 000000
2016-08-11 06:08:07,-0.00,0.15,0.00,24.52,28.75,31.34,14.34,46.99,1014.67,2033.04,3393.00,3067.99,3471.02,600.18,592.03,30.98,0000 0000 0000 0000 000000
2016-08-11 06:13:08,-0.00,0.15,0.00,24.53,28.77,31.34,14.39,47.00,1014.68,2033.02,3392.99,3067.99,3471.01,599.84,591.62,31.03,0000 0000 0000 0000 000000
2016-08-11 06:18:09,0.00,0.15,0.00,24.54,28.77,31.36,14.42,47.08,1014.66,2033.00,3392.98,3067.97,3471.00,600.51,592.37,31.08,0000 0000 0000 0000 000000
2016-08-11 06:23:11,0.01,0.15,0.00,24.55,28.77,31.35,14.34,47.02,1014.67,2033.00,3392.87,3067.76,3471.00,599.81,591.72,31.13,0000 0000 0000 0000 000000
2016-08-11 06:28:12,0.00,0.15,0.00,24.56,28.77,31.36,14.38,47.04,1014.66,2033.00,3392.70,3067.67,3470.99,600.03,591.73,31.18,0000 0000 0000 0000 000000
2016-08-11 06:33:13,0.02,0.15,0.00,24.57,28.78,31.36,14.34,47.00,1014.68,2033.00,3392.15,3067.27,3470.94,599.65,591.48,31.23,0000 0000 0000 0000 000000
2016-08-11 06:38:14,-0.00,0.15,0.00,24.57,28.79,31.37,14.40,47.02,1014.67,2033.00,3392.09,3067.28,3470.96,600.22,592.09,31.28,0000 0000 0000 0000 000000
2016-08-11 06:43:15,0.01,0.15,0.00,24.59,28.80,31.36,14.27,46.89,1014.66,2033.00,3392.03,3067.08,3470.76,599.52,591.24,31.33,0000 0000 0000 0000 000000
2016-08-11 06:48:16,0.00,0.15,0.00,24.60,28.80,31.38,14.43,47.00,1014.66,2033.00,3392.05,3067.10,3470.72,600.01,591.76,31.38,0000 0000 0000 0000 000000
2016-08-11 06:53:17,0.00,0.15,0.00,24.61,28.80,31.38,14.44,47.09,1014.66,2033.00,3391.99,3067.02,3470.16,600.03,591.78,31.43,0000 0000 0000 0000 000000
2016-08-11 06:58:19,0.00,0.15,0.00,24.62,28.80,31.38,14.38,47.03,1014.66,2033.00,3391.98,3067.00,3470.03,600.16,591.70,31.48,0000 0000 0000 0000 000000
2016-08-11 07:03:20,0.00,0.15,0.00,24.62,28.81,31.38,14.41,47.02,1014.66,2033.00,3391.97,3067.00,3470.01,600.30,591.93,31.53,0000 0000 0000 0000 000000
2016-08-11 07:08:21,0.00,0.15,0.00,24.64,28.82,31.38,14.36,46.78,1014.65,2032.99,3391.86,3067.00,3470.01,600.01,591.66,31.58,0000 0000 0000 0000 000000
2016-08-11 07:13:23,0.00,0.15,0.00,24.65,28.82,31.38,14.42,47.08,1014.65,2032.99,3391.54,3067.00,3470.00,599.94,591.53,31.63,0000 0000 0000 0000 000000
2016-08-11 07:18:24,0.00,0.15,0.00,24.65,28.82,31.40,14.38,47.32,1014.54,2032.99,3391.26,3066.99,3470.00,600.04,591.62,31.68,0000 0000 0000 0000 000000
2016-08-11 07:23:25,0.00,0.15,0.00,24.66,28.82,31.40,14.38,47.06,1014.30,2032.99,3391.01,3066.97,3469.98,599.97,591.26,31.73,0000 0000 0000 0000 000000
2016-08-11 07:28:26,0.00,0.15,0.00,24.67,28.83,31.40,14.45,47.25,1014.39,2032.99,3391.00,3066.92,3469.91,600.03,591.32,31.78,0000 0000 0000 0000 000000
2016-08-11 07:33:28,0.00,0.15,0.00,24.67,28.84,31.40,14.40,47.13,1014.40,2032.99,3391.00,3066.90,3469.82,600.08,591.41,31.83,0000 0000 0000 0000 000000
2016-08-11 07:38:29,0.01,0.15,0.00,24.68,28.85,31.40,14.44,47.14,1014.37,2032.99,3390.98,3066.76,3469.47,600.42,591.61,31.88,0000 0000 0000 0000 000000
2016-08-11 07:43:31,0.01,0.15,0.00,24.70,28.85,31.40,14.38,46.93,1014.50,2032.99,3390.95,3066.37,3469.11,600.22,591.52,31.93,0000 0000 0000 0000 000000
2016-08-11 07:48:32,0.01,0.15,0.00,24.70,28.85,31.41,14.42,47.14,1014.44,2032.98,3390.56,3066.10,3469.02,600.11,591.46,31.98,0000 0000 0000 0000 000000
2016-08-11 07:53:33,0.00,0.15,0.00,24.70,28.85,31.41,14.47,46.98,1014.47,2032.99,3390.13,3066.07,3469.00,600.15,591.46,32.03,0000 0000 0000 0000 000000
2016-08-11 07:58:35,0.00,0.15,0.00,24.72,28.85,31.42,14.29,46.79,1014.52,2032.99,3390.02,3066.05,3469.00,599.93,591.31,32.08,0000 0000 0000 0000 000000
2016-08-11 08:03:36,0.00,0.15,0.00,24.72,28.85,31.42,14.34,46.75,1014.59,2032.99,3390.03,3066.05,3469.00,599.92,591.26,32.13,0000 0000 0000 0000 000000
2016-08-11 08:08:37,0.00,0.15,0.00,24.75,28.85,31.42,14.36,47.02,1014.41,2032.99,3390.00,3066.01,3469.00,599.88,591.15,32.18,0000 0000 0000 0000 000000
2016-08-11 08:13:39,0.00,0.15,0.00,24.73,28.85,31.43,14.36,46.74,1014.27,2032.99,3390.00,3066.00,3468.98,599.73,590.94,32.23,0000 0000 0000 0000 000000
2016-08-11 08:18:40,0.00,0.15,0.00,24.74,28.86,31.43,14.47,47.34,1014.24,2032.99,3389.98,3066.00,3468.98,600.06,591.11,32.28,0000 0000 0000 0000 000000
2016-08-11 08:23:41,0.00,0.15,0.00,24.74,28.86,31.44,14.33,47.39,1014.20,2032.99,3389.92,3066.00,3468.92,600.09,591.13,32.33,0000 0000 0000 0000 000000
2016-08-11 08:28:42,0.02,0.15,0.00,24.75,28.87,31.44,14.31,47.02,1014.38,2032.99,3389.36,3066.00,3468.43,599.83,591.12,32.38,0000 0000 0000 0000 000000
2016-08-11 08:33:43,0.00,0.15,0.00,24.75,28.87,31.43,14.39,46.98,1014.62,2032.99,3389.04,3065.97,3468.14,600.09,591.45,32.43,0000 0000 0000 0000 000000
2016-08-11 08:38:45,0.00,0.15,0.00,24.77,28.87,31.43,14.38,47.06,1014.65,2032.99,3389.00,3065.93,3468.04,599.88,591.20,32.49,0000 0000 0000 0000 000000
2016-08-11 08:43:46,0.00,0.15,0.00,24.77,28.87,31.44,14.37,47.11,1014.61,2032.99,3389.00,3065.92,3468.01,599.73,591.00,32.54,0000 0000 0000 0000 000000
2016-08-11 08:48:47,0.00,0.15,0.00,24.79,28.87,31.44,14.38,46.73,1014.60,2032.99,3388.98,3065.74,3468.00,599.96,591.24,32.59,0000 0000 0000 0000 000000
2016-08-11 08:53:48,0.00,0.15,0.00,24.79,28.87,31.44,14.29,46.83,1014.65,2032.99,3388.94,3065.48,3468.00,600.18,591.49,32.64,0000 0000 0000 0000 000000
2016-08-11 08:58:49,0.01,0.15,0.00,24.80,28.87,31.44,14.32,46.90,1014.56,2032.99,3388.76,3065.23,3468.00,599.57,590.91,32.69,0000 0000 0000 0000 000000
2016-08-11 09:03:50,0.01,0.15,0.00,24.80,28.87,31.44,14.40,47.08,1014.27,2032.99,3388.38,3065.07,3467.98,600.16,591.15,32.74,0000 0000 0000 0000 000000
2016-08-11 09:08:52,0.00,0.16,0.00,24.80,28.87,31.45,14.32,46.87,1014.20,2032.99,3388.04,3065.02,3467.95,599.77,590.76,32.79,0000 0000 0000 0000 000000
2016-08-11 09:13:53,0.00,0.16,0.00,24.80,28.87,31.45,14.43,47.10,1014.19,2032.99,3388.02,3065.00,3467.72,600.32,591.35,32.84,0000 0000 0000 0000 000000
2016-08-11 09:18:54,0.00,0.16,0.00,24.82,28.87,31.45,14.43,46.89,1014.21,2032.99,3387.99,3065.00,3467.29,600.50,591.55,32.89,0000 0000 0000 0000 000000
2016-08-11 09:23:55,0.00,0.16,0.00,24.82,28.87,31.45,14.45,47.21,1014.19,2032.99,3387.99,3065.00,3467.23,600.40,591.34,32.94,0000 0000 0000 0000 000000
2016-08-11 09:28:56,0.00,0.16,0.00,24.82,28.87,31.46,14.40,47.01,1014.19,2032.99,3387.98,3065.00,3467.10,600.40,591.28,32.99,0000 0000 0000 0000 000000
2016-08-11 09:33:58,0.01,0.16,0.00,24.82,28.87,31.45,14.40,47.17,1014.18,2032.99,3387.64,3065.00,3467.01,600.14,591.26,33.04,0000 0000 0000 0000 000000
2016-08-11 09:38:59,0.00,0.16,0.00,24.82,28.87,31.46,14.39,47.08,1014.17,2032.99,3387.13,3064.98,3467.00,600.11,591.11,33.09,0000 0000 0000 0000 000000
2016-08-11 09:44:00,0.00,0.16,0.00,24.83,28.87,31.47,14.33,47.04,1014.17,2032.99,3387.01,3064.94,3466.99,599.50,590.41,33.14,0000 0000 0000 0000 000000
2016-08-11 09:49:02,0.00,0.16,0.00,24.82,28.87,31.47,14.41,47.23,1014.15,2032.99,3387.00,3064.68,3466.98,600.16,591.13,33.19,0000 0000 0000 0000 000000
2016-08-11 09:54:03,0.01,0.16,0.00,24.83,28.87,31.47,14.45,47.27,1014.16,2032.99,3386.98,3064.37,3466.93,599.90,590.88,33.24,0000 0000 0000 0000 000000
2016-08-11 09:59:04,0.02,0.16,0.00,24.84,28.87,31.47,14.30,46.96,1014.15,2032.99,3386.63,3064.14,3466.54,599.67,590.54,33.29,0000 0000 0000 0000 000000
2016-08-11 10:04:06,0.01,0.16,0.00,24.83,28.87,31.47,14.27,47.17,1014.01,2032.99,3386.13,3064.03,3466.21,599.42,590.43,33.34,0000 0000 0000 0000 000000
2016-08-11 10:09:07,0.00,0.16,0.00,24.83,28.87,31.46,14.46,47.32,1013.90,2032.99,3386.01,3064.01,3466.04,600.60,591.52,33.39,0000 0000 0000 0000 000000
2016-08-11 10:14:08,0.00,0.16,0.00,24.83,28.87,31.47,14.26,46.82,1013.89,2032.99,3386.00,3064.00,3466.00,599.78,590.66,33.44,0000 0000 0000 0000 000000
2016-08-11 10:19:10,0.00,0.16,0.00,24.85,28.87,31.48,14.36,47.07,1013.81,2032.99,3385.97,3064.00,3466.00,600.36,591.04,33.50,0000 0000 0000 0000 000000
2016-08-11 10:24:12,0.00,0.16,0.00,24.84,28.87,31.48,14.47,47.38,1013.70,2032.99,3385.93,3064.00,3466.00,600.39,590.94,33.55,0000 0000 0000 0000 000000
2016-08-11 10:29:13,0.00,0.16,0.00,24.83,28.87,31.47,14.31,47.12,1013.70,2032.99,3385.57,3064.00,3465.99,599.55,590.50,33.60,0000 0000 0000 0000 000000
2016-08-11 10:34:14,0.00,0.16,0.00,24.85,28.86,31.46,14.33,46.98,1013.69,2033.00,3385.09,3063.99,3465.95,599.77,590.44,33.65,0000 0000 0000 0000 000000
2016-08-11 10:39:15,0.00,0.16,0.00,24.85,28.85,31.46,14.40,46.95,1013.69,2033.00,3385.01,3063.98,3465.88,600.40,591.08,33.70,0000 0000 0000 0000 000000
2016-08-11 10:44:16,0.00,0.16,0.00,24.84,28.85,31.46,14.39,46.88,1013.69,2033.00,3385.00,3063.98,3465.79,600.01,590.71,33.75,0000 0000 0000 0000 000000
2016-08-11 10:49:17,0.01,0.16,0.00,24.83,28.85,31.46,14.28,46.87,1013.69,2033.00,3384.98,3063.96,3465.39,599.45,590.19,33.80,0000 0000 0000 0000 000000
2016-08-11 10:54:19,0.00,0.16,0.00,24.82,28.85,31.47,14.31,46.84,1013.68,2033.00,3384.96,3063.92,3465.15,599.71,590.41,33.85,0000 0000 0000 0000 000000
2016-08-11 10:59:20,-0.00,0.16,0.00,24.82,28.85,31.47,14.32,46.89,1013.69,2033.00,3384.89,3063.83,3465.06,599.43,590.23,33.90,0000 0000 0000 0000 000000
2016-08-11 11:04:21,0.00,0.16,0.00,24.83,28.85,31.46,14.32,46.99,1013.68,2033.01,3384.78,3063.90,3465.09,599.45,589.91,33.95,0000 0000 0000 0000 000000
2016-08-11 11:09:22,0.01,0.16,0.00,24.82,28.85,31.45,14.40,47.11,1013.66,2033.01,3384.23,3063.73,3465.03,599.99,590.67,34.00,0000 0000 0000 0000 000000
2016-08-11 11:14:23,0.00,0.16,0.00,24.83,28.85,31.45,14.37,46.96,1013.68,2033.01,3384.07,3063.51,3465.01,600.20,590.85,34.05,0000 0000 0000 0000 000000
2016-08-11 11:19:24,0.01,0.16,0.00,24.83,28.84,31.44,14.38,47.10,1013.67,2033.01,3384.01,3063.21,3465.00,600.08,590.76,34.10,0000 0000 0000 0000 000000
2016-08-11 11:24:26,0.00,0.16,0.00,24.83,28.84,31.45,14.36,47.09,1013.46,2033.00,3384.01,3063.11,3465.00,600.27,590.66,34.15,0000 0000 0000 0000 000000
2016-08-11 11:29:27,-0.00,0.16,0.00,24.83,28.84,31.46,14.36,47.08,1013.24,2033.03,3384.00,3063.07,3464.99,600.16,590.59,34.20,0000 0000 0000 0000 000000
2016-08-11 11:34:29,0.00,0.16,0.00,24.82,28.83,31.46,14.35,46.95,1013.21,2033.01,3384.00,3063.02,3464.98,600.41,590.80,34.25,0000 0000 0000 0000 000000
2016-08-11 11:39:30,0.00,0.16,0.00,24.83,28.83,31.46,14.36,46.91,1013.20,2033.02,3383.99,3063.00,3464.97,600.14,590.47,34.30,0000 0000 0000 0000 000000
2016-08-11 11:44:31,0.00,0.16,0.00,24.82,28.82,31.45,14.28,46.83,1013.20,2033.02,3383.99,3063.00,3464.98,599.95,590.42,34.35,0000 0000 0000 0000 000000
2016-08-11 11:49:32,0.00,0.16,0.00,24.83,28.82,31.45,14.35,46.94,1013.18,2033.01,3383.98,3063.00,3464.97,599.66,590.03,34.40,0000 0000 0000 0000 000000
2016-08-11 11:54:33,0.00,0.16,0.00,24.82,28.82,31.44,14.40,47.23,1012.98,2033.05,3383.99,3063.00,3464.98,600.25,590.52,34.45,0000 0000 0000 0000 000000
2016-08-11 11:59:35,-0.00,0.16,0.00,24.82,28.82,31.45,14.24,46.86,1012.80,2033.03,3383.96,3063.00,3464.94,599.62,589.83,34.51,0000 0000 0000 0000 000000
2016-08-11 12:04:36,0.00,0.16,0.00,24.82,28.82,31.46,14.33,46.92,1012.72,2033.06,3383.93,3063.00,3464.90,600.11,590.10,34.56,0000 0000 0000 0000 000000
2016-08-11 12:09:37,0.00,0.16,0.00,24.82,28.82,31.45,14.36,46.88,1012.72,2033.08,3383.91,3063.00,3464.93,599.71,589.76,34.61,0000 0000 0000 0000 000000
2016-08-11 12:14:38,0.00,0.16,0.00,24.82,28.82,31.46,14.32,46.88,1012.71,2033.06,3383.54,3063.00,3464.82,600.00,590.22,34.66,0000 0000 0000 0000 000000
2016-08-11 12:19:39,0.01,0.16,0.00,24.82,28.82,31.46,14.40,47.08,1012.64,2033.05,3383.23,3063.00,3464.61,599.93,590.05,34.71,0000 0000 0000 0000 000000
2016-08-11 12:24:40,0.00,0.16,0.00,24.82,28.82,31.45,14.34,46.86,1012.46,2033.08,3383.09,3063.00,3464.45,599.80,589.92,34.76,0000 0000 0000 0000 000000
2016-08-11 12:29:41,0.01,0.17,0.00,24.82,28.82,31.44,14.28,46.97,1012.38,2033.09,3383.01,3062.99,3464.11,599.83,589.64,34.81,0000 0000 0000 0000 000000
2016-08-11 12:34:42,-0.00,0.17,0.00,24.82,28.82,31.45,14.36,47.10,1012.26,2033.06,3383.00,3062.96,3464.02,600.06,589.62,34.86,0000 0000 0000 0000 000000
2016-08-11 12:39:43,0.01,0.17,0.00,24.82,28.82,31.44,14.34,47.14,1012.24,2033.11,3383.00,3062.82,3464.00,600.37,590.14,34.91,0000 0000 0000 0000 000000
2016-08-11 12:44:45,0.02,0.17,0.00,24.81,28.82,31.44,14.35,47.17,1012.23,2033.15,3382.90,3062.43,3464.00,599.68,589.54,34.96,0000 0000 0000 0000 000000
2016-08-11 12:49:46,0.01,0.17,0.00,24.80,28.82,31.44,14.39,47.08,1012.23,2033.07,3382.27,3062.02,3463.89,600.23,589.99,35.01,0000 0000 0000 0000 000000
2016-08-11 12:54:48,0.02,0.17,0.00,24.80,28.82,31.45,14.25,47.07,1012.23,2033.14,3382.01,3061.99,3463.18,600.06,589.73,35.06,0000 0000 0000 0000 000000